Basel, France

11:52 AM CEST on June 26, 2017 (GMT +0200)
Basle-Mulhouse

Weather History for LFSB - December, 2012

Change the Weather History Date:

Monday, December 3, 2012

  Actual Average Record
Temperature  
Mean Temperature 30 °F -  
Max Temperature 37 °F 40 °F 62 °F (2006)
Min Temperature 24 °F 29 °F 5 °F (2010)
Degree Days  
Heating Degree Days 34    
Moisture  
Dew Point 28 °F    
Average Humidity 85    
Maximum Humidity 100    
Minimum Humidity 55    
Precipitation  
Precipitation 0.00 in - - ()
Sea Level Pressure  
Sea Level Pressure 30.02 in    
Wind  
Wind Speed 5 mph ()    
Max Wind Speed 15 mph    
Max Gust Speed -    
Visibility 5.4 miles    
Events Rain , Snow    
Averages and records for this station are not official NWS values.
T = Trace of Precipitation, MM = Missing Value Source: Averaged Metar Reports

Daily Weather History Graph

Daily Weather History Graph

Search for Another Location

Airport or City:

Trip Planner

Search our weather history database for the weather conditions in past years. The results will help you decide how hot, cold, wet, or windy it might be!

Date:

Astronomy

Dec. 03, 2012 Rise Set
Actual Time 7:59 AM CET 4:39 PM CET
Civil Twilight 7:24 AM CET 5:14 PM CET
Nautical Twilight 6:45 AM CET 5:53 PM CET
Astronomical Twilight 6:08 AM CET 6:30 PM CET
Moon 9:20 PM CET (12/3) 11:05 AM CET (12/3)
Length of Visible Light 9h 50m
Length of Day
8h 39m
Waning Gibbous, 80% of the Moon is Illuminated
Dec 3
Waning Gibbous
Dec 6
Last Quarter
Dec 13
New
Dec 20
First Quarter
Dec 28
Full

Hourly Weather History & Observations

Time (CET) Temp. Windchill Dew Point Humidity Pressure Visibility Wind Dir Wind Speed Gust Speed Precip Events Conditions
12:00 AM 33.8 °F 23.9 °F 28.4 °F 81% 30.06 in - West 15.0 mph - N/A   Clear
12:30 AM 33.8 °F 26.4 °F 28.4 °F 81% 30.09 in 6.2 mi West 9.2 mph - N/A   Unknown
1:00 AM 33 °F - 27 °F 72% 30.15 in 22 mi SSW 2.3 mph - -   Clear
1:00 AM 33.8 °F - 26.6 °F 75% 30.09 in 6.2 mi Variable 2.3 mph - N/A   Unknown
1:30 AM 32.0 °F - 26.6 °F 80% 30.09 in 6.2 mi Variable 2.3 mph - N/A   Overcast
2:00 AM 32.0 °F - 26.6 °F 80% 30.09 in 6.2 mi Variable 2.3 mph - N/A   Mostly Cloudy
2:30 AM 32.0 °F 28.7 °F 26.6 °F 80% 30.09 in 6.2 mi Variable 3.5 mph - N/A   Mostly Cloudy
3:00 AM 32.0 °F 27.5 °F 26.6 °F 80% 30.12 in 6.2 mi WSW 4.6 mph - N/A   Mostly Cloudy
3:30 AM 30.2 °F - 24.8 °F 80% 30.12 in 6.2 mi Variable 2.3 mph - N/A   Partly Cloudy
4:00 AM 28.4 °F - 26.6 °F 93% 30.12 in 6.2 mi Variable 1.2 mph - N/A   Partly Cloudy
4:30 AM 30.2 °F 26.7 °F 26.6 °F 86% 30.12 in 6.2 mi Variable 3.5 mph - N/A   Scattered Clouds
5:00 AM 30.2 °F 25.4 °F 24.8 °F 80% 30.12 in 6.2 mi WSW 4.6 mph - N/A   Partly Cloudy
5:30 AM 28.4 °F - 24.8 °F 86% 30.12 in 6.2 mi Variable 2.3 mph - N/A   Partly Cloudy
6:00 AM 26.6 °F 22.6 °F 24.8 °F 93% 30.12 in 6.2 mi Variable 3.5 mph - N/A   Partly Cloudy
6:30 AM 28.4 °F 23.3 °F 24.8 °F 86% 30.12 in 6.2 mi South 4.6 mph - N/A   Partly Cloudy
7:00 AM 26 °F - 22 °F 79% 30.21 in 12 mi SE 1.2 mph - -   Scattered Clouds
7:00 AM 26.6 °F - 23.0 °F 86% 30.12 in 6.2 mi Variable 2.3 mph - N/A   Partly Cloudy
7:30 AM 24.8 °F - 23.0 °F 93% 30.12 in 6.2 mi Variable 2.3 mph - N/A   Partly Cloudy
8:00 AM 26.6 °F 22.6 °F 23.0 °F 86% 30.12 in 6.2 mi South 3.5 mph - N/A   Partly Cloudy
8:30 AM 26.6 °F 22.6 °F 24.8 °F 93% 30.12 in 6.2 mi South 3.5 mph - N/A   Partly Cloudy
9:00 AM 28.4 °F 23.3 °F 24.8 °F 86% 30.12 in 6.2 mi SSW 4.6 mph - N/A   Partly Cloudy
9:30 AM 30.2 °F 24.3 °F 24.8 °F 80% 30.12 in 6.2 mi South 5.8 mph - N/A   Scattered Clouds
10:00 AM 32.0 °F 26.4 °F 24.8 °F 75% 30.12 in 6.2 mi SSE 5.8 mph - N/A   Mostly Cloudy
10:30 AM 32.0 °F 26.4 °F 26.6 °F 80% 30.09 in 6.2 mi SSE 5.8 mph - N/A   Mostly Cloudy
11:00 AM 33.8 °F 27.7 °F 26.6 °F 75% 30.09 in - SSE 6.9 mph - N/A   Clear
11:30 AM 33.8 °F 26.4 °F 24.8 °F 70% 30.09 in 6.2 mi SE 9.2 mph - N/A   Mostly Cloudy
12:00 PM 33.8 °F 28.6 °F 24.8 °F 70% 30.06 in 6.2 mi South 5.8 mph - N/A   Mostly Cloudy
12:30 PM 33.8 °F 29.6 °F 24.8 °F 70% 30.06 in 6.2 mi South 4.6 mph - N/A   Mostly Cloudy
1:00 PM 35 °F - 25 °F 55% 30.09 in 12 mi SSE 4.6 mph - -   Overcast
1:00 PM 33.8 °F 30.8 °F 24.8 °F 70% 30.04 in 6.2 mi SSE 3.5 mph - N/A   Mostly Cloudy
1:30 PM 33.8 °F 29.6 °F 26.6 °F 75% 30.04 in 1.6 mi SE 4.6 mph - N/A Snow Light Snow
2:00 PM 32.0 °F 27.5 °F 28.4 °F 87% 30.01 in 3.1 mi East 4.6 mph - N/A Snow Light Snow
2:30 PM 32.0 °F 25.6 °F 30.2 °F 93% 29.98 in 6.2 mi ESE 6.9 mph - N/A   Mostly Cloudy
3:00 PM 33.8 °F 29.6 °F 30.2 °F 87% 29.98 in 6.2 mi SE 4.6 mph - N/A   Mostly Cloudy
3:30 PM 33.8 °F 29.6 °F 30.2 °F 87% 29.95 in 6.2 mi ESE 4.6 mph - N/A   Mostly Cloudy
4:00 PM 33.8 °F 28.6 °F 30.2 °F 87% 29.95 in 6.2 mi SE 5.8 mph - N/A   Mostly Cloudy
4:30 PM 33.8 °F 28.6 °F 30.2 °F 87% 29.95 in 6.2 mi SE 5.8 mph - N/A   Mostly Cloudy
5:00 PM 33.8 °F - 30.2 °F 87% 29.95 in 6.2 mi Variable 2.3 mph - N/A   Mostly Cloudy
5:30 PM 33.8 °F 30.8 °F 32.0 °F 93% 29.92 in 3.7 mi Variable 3.5 mph - N/A   Mostly Cloudy
6:00 PM 33.8 °F - 32.0 °F 93% 29.92 in 2.5 mi Variable 2.3 mph - N/A   Light Drizzle
6:30 PM 33.8 °F - 32.0 °F 93% 29.92 in 1.9 mi Variable 2.3 mph - N/A   Light Drizzle
7:00 PM 33 °F - 32 °F 94% 29.95 in 2 mi South 3.5 mph - - Rain Light Drizzle
7:00 PM 33.8 °F 30.8 °F 32.0 °F 93% 29.89 in 2.5 mi South 3.5 mph - N/A   Light Drizzle
7:30 PM 33.8 °F 28.6 °F 32.0 °F 93% 29.89 in 3.7 mi South 5.8 mph - N/A   Light Drizzle
8:00 PM 33.8 °F 29.6 °F 33.8 °F 100% 29.86 in 2.5 mi SSE 4.6 mph - N/A Rain Light Rain
8:30 PM 33.8 °F 30.8 °F 33.8 °F 100% 29.83 in 2.5 mi South 3.5 mph - N/A Rain Light Rain
9:00 PM 33.8 °F 28.6 °F 33.8 °F 100% 29.86 in 1.9 mi WNW 5.8 mph - N/A Rain Light Rain
9:30 PM 33.8 °F 29.6 °F 33.8 °F 100% 29.86 in 1.2 mi WNW 4.6 mph - N/A Rain Light Rain
10:00 PM 33.8 °F 27.0 °F 33.8 °F 100% 29.83 in 1.9 mi SSE 8.1 mph - N/A Rain Light Rain
10:30 PM 35.6 °F 29.2 °F 33.8 °F 93% 29.83 in - SSE 8.1 mph - N/A Rain Rain
11:00 PM 37.4 °F 30.8 °F 37.4 °F 100% 29.80 in 5.0 mi SSE 9.2 mph - N/A Rain Light Rain
11:30 PM 37.4 °F 29.8 °F 35.6 °F 93% 29.80 in 5.0 mi East 11.5 mph - N/A   Mostly Cloudy